Location: Roma
(41.9000°N, 12.4830°E)
Time: 14:28:33
(UTC+02:00)

ISS - Visible Passes

Search period start: 20 April 2021 00:00
Search period end: 30 April 2021 00:00
Orbit: 418 x 421 km, 51.6° (Epoch: 20 April)

Date Brightness Start Highest point End Pass type
(mag) Time Alt. Az. Time Alt. Az. Time Alt. Az.
22 Apr -0.7 05:46:21 10° SE 05:46:51 10° SE 05:47:20 10° ESE visible
24 Apr -2.1 05:45:34 10° SSW 05:48:33 29° SE 05:51:31 10° ENE visible
25 Apr -1.4 04:58:58 10° S 05:01:19 18° SE 05:03:40 10° E visible
26 Apr -1.0 04:13:30 10° SE 04:14:08 10° SE 04:14:46 10° ESE visible
27 Apr -3.2 05:00:58 19° SSW 05:03:05 51° SE 05:06:23 10° ENE visible
28 Apr -2.5 04:15:28 29° SSE 04:15:47 30° SE 04:18:47 10° ENE visible
29 Apr -1.1 03:29:54 15° ESE 03:29:54 15° ESE 03:30:55 10° E visible
29 Apr -3.4 05:02:51 19° WSW 05:05:04 57° NNW 05:08:25 10° NE visible
